Location: Lane
(33.5226°N, 79.8788°W)
Time: 19:14:18
(UTC+00:00)

Explorer 11/Cluster Stage 4 - Pass Details

Date: 08 October 2022
Orbit: 466 x 1247 km, 28.8° (Epoch: 01 December)

Event Time Altitude Azimuth Distance (km) Brightness Sun altitude
Rises 18:01:56 0° 271° (W) 4,181 10.5 48.3°
Reaches altitude 10° 18:04:59 10° 267° (W) 3,207 10.1 48.1°
Maximum altitude 18:12:49 51° 194° (SSW) 1,443 10.6 47.4°
Drops below altitude 10° 18:19:48 10° 121° (ESE) 2,877 9.6 46.8°
Sets 18:22:25 0° 116° (ESE) 3,724 10.0 46.5°
